Regional Weather Roundup
Issued by NWS San Angelo, TX

Home | Current Version | Previous Version | Text Only | Print | Product List | Glossary On
Versions: 1 2 3 4 5 6 7 8 9 10 11 12 13 14 15 16 17 18 19 20 21 22 23 24 25 26 27 28 29 30 31 32 33 34 35 36 37 38 39 40 41 42 43 44 45 46 47 48 49 50
678
ASUS44 KSJT 122211
RWRSJT
WEST CENTRAL TEXAS REGIONAL WEATHER ROUNDUP
NATIONAL WEATHER SERVICE SAN ANGELO TX
400 PM CST FRI FEB 12 2016

NOTE: "FAIR" INDICATES FEW OR NO CLOUDS BELOW 12,000 FEET WITH NO
SIGNIFICANT WEATHER AND/OR OBSTRUCTIONS TO VISIBILITY.

TXZ049-054-064>066-071>073-076>078-098-099-113-114-127-128-139-140-
154-155-168>170-122300
...LOCATIONS ACROSS WEST CENTRAL TEXAS...

CITY           SKY/WX    TMP DP  RH WIND       PRES   REMARKS
SAN ANGELO     SUNNY     74  33  22 NE9       30.21F
ABILENE        SUNNY     70  30  22 E13G18    30.25S
DYESS AFB      SUNNY     71  33  24 E12       30.24R
JUNCTION       SUNNY     78  27  15 E3        30.19F
SWEETWATER     SUNNY     69  29  23 E12G18    30.28S
BROWNWOOD      NOT AVBL
COLEMAN        CLEAR     74  32  21 SE13      30.23R
SONORA         SUNNY     77  28  16 CALM      30.23F
OZONA          FAIR      77  27  15 SE6       30.22F
BRADY          NOT AVBL
$$

TEXAS PANHANDLE/OKLAHOMA PANHANDLE

CITY           SKY/WX    TMP DP  RH WIND       PRES   REMARKS
AMARILLO       SUNNY     66  27  23 SE10G18   30.29F
BORGER         SUNNY     65  25  22 E8G18     30.29F
CANADIAN       SUNNY     65  31  27 E7        30.29S
DALHART        SUNNY     65  24  21 S10       30.29F
DUMAS          CLEAR     63  26  24 SE9       30.29F
GUYMON         NOT AVBL
HEREFORD       NOT AVBL
PAMPA          CLEAR     65  26  22 SE9       30.30S
PERRYTON       SUNNY     63  31  30 E9        30.30F
$$

SOUTHERN PANHANDLE/SOUTH PLAINS/ROLLING PLAINS

CITY           SKY/WX    TMP DP  RH WIND       PRES   REMARKS
LUBBOCK        SUNNY     70  23  17 SE17      30.25F
SNYDER           N/A     69  28  21 E13G18    30.26S
CHILDRESS      SUNNY     66  34  30 E10       30.28F
SEMINOLE       CLEAR     73  27  18 SE9       30.25S
$$

PERMIAN BASIN

CITY           SKY/WX    TMP DP  RH WIND       PRES   REMARKS
MIDLAND        SUNNY     75  27  17 VRB3      30.23S
ODESSA         SUNNY     74  24  15 E3        30.23F
WINK           SUNNY     75  23  14 CALM      30.20F
$$

FAR WEST/SOUTHWEST MOUNTAINS/TRANS PECOS

CITY           SKY/WX    TMP DP  RH WIND       PRES   REMARKS
ALPINE         CLEAR     74  20  13 E13       30.30F
DRYDEN           N/A     82  20  10 VRB7      30.16S
EL PASO        SUNNY     74  12   9 CALM      30.23F
FORT STOCKTON  SUNNY     74  23  15 VRB3      30.22F
GUADALUPE PASS SUNNY     73  12   9 SW13      30.31S
MARFA          SUNNY     73   0   5 VRB3      30.28F
PECOS          CLEAR     74  25  16 N3        30.20S
$$

DALLAS/FORT WORTH METROPLEX

CITY           SKY/WX    TMP DP  RH WIND       PRES   REMARKS
DFW AIRPORT    SUNNY     70  35  27 N12       30.25S
FTW MEACHAM    SUNNY     69  37  30 NE8       30.26R
DAL-EXECUTIVE  SUNNY     69  35  28 NE12      30.25R
GRAND PRAIRIE  SUNNY     70  34  26 N8        30.27
ADDISON        NOT AVBL
MESQUITE       CLEAR     68  36  30 MISG      30.26S
LANCASTER      CLEAR     69  32  25 NE10      30.26S
$$

NORTH CENTRAL TEXAS

CITY           SKY/WX    TMP DP  RH WIND       PRES   REMARKS
SHRMAN/DENISON CLEAR     67  35  30 N8        30.29S
GAINESVILLE    SUNNY     67  35  30 N10       30.29F
BRIDGEPORT     CLEAR     70  40  33 NE7       30.28S
DENTON         SUNNY     68  36  30 NE13      30.26F
WAXAHACHIE     CLEAR     68  39  33 NE9       30.26R
GRANBURY       CLEAR     72  35  25 NE7       30.27R
$$

WESTERN NORTH TEXAS

CITY           SKY/WX    TMP DP  RH WIND       PRES   REMARKS
WICHITA FALLS  SUNNY     68  35  29 NE13      30.28S
VERNON         CLEAR     67  31  26 NE13      30.30S
BRECKENRIDGE   CLEAR     73  31  21 E8        30.25S
COMANCHE       SUNNY     72  34  24 E10G16    30.24S
$$

CENTRAL AND SOUTH CENTRAL TEXAS

CITY           SKY/WX    TMP DP  RH WIND       PRES   REMARKS
AUSTIN/BERGSTM SUNNY     78  40  25 N13       30.18S
WACO           SUNNY     73  36  25 NE15      30.22S
HILLSBORO      CLEAR     70  35  28 NE8       30.24R
TEMPLE         SUNNY     74  39  28 NE14      30.22R HAZE
KILLEEN-GRAY   SUNNY     73  37  27 NE13      30.21S
FORT HOOD      SUNNY     74  33  22 NE12G21   30.20S
GEORGETOWN     SUNNY     77  39  25 N10       30.19
LAGO VISTA     FAIR      77  36  22 E8        30.21S
SAN MARCOS     SUNNY     79  41  25 NE10      30.19S
NEW BRAUNFELS  SUNNY     82  45  27 NE9       30.16S
RANDOLPH AFB   SUNNY     81  46  29 SE8       30.16S
SAN ANTONIO    SUNNY     81  45  28 SE8       30.16F
STINSON        SUNNY     82  43  25 E5        30.14F
PLEASANTON     NOT AVBL
LA GRANGE      SUNNY     79  53  40 CALM      30.16R
GIDDINGS       CLEAR     77  41  27 N6        30.21S
$$

EAST TEXAS

CITY           SKY/WX    TMP DP  RH WIND       PRES   REMARKS
PARIS          SUNNY     70  36  28 N16       30.26S
CLARKSVILLE    NOT AVBL
TYLER          SUNNY     73  36  25 NE10      30.23S
LONGVIEW       SUNNY     72  37  28 N8        30.22S
PALESTINE      CLEAR     74  40  29 NE7       30.23S
NACOGDOCHES    SUNNY     75  45  33 N6        30.21R
$$

TEXAS HILL COUNTRY AND EDWARDS PLATEAU

CITY           SKY/WX    TMP DP  RH WIND       PRES   REMARKS
LLANO          CLEAR     79  37  22 E7        30.23S
HORSESHOE BAY  FAIR      79  36  21 NE7       30.20S
KERRVILLE      SUNNY     81  35  18 NE9       30.18F
FREDERICKSBRG  SUNNY     76  35  22 E6        30.20S
ROCKSPRINGS    CLEAR     81  32  17 SE6       30.20F
HONDO          SUNNY     82  35  18 SE3       30.18F
UVALDE         CLEAR     82  41  23 SE12      30.16S
DEL RIO        SUNNY     84  27  12 S7        30.12F
$$

SOUTHEAST TEXAS

CITY           SKY/WX    TMP DP  RH WIND       PRES   REMARKS
COLLEGE STN    SUNNY     77  48  35 CALM      30.18S
CALDWELL       CLEAR     75  37  25 N6        30.21S
CROCKETT       CLEAR     75  50  41 NE9       30.23R
BRENHAM        SUNNY     77  52  41 CALM      30.18S
HUNTSVILLE     SUNNY     75  52  44 CALM      30.18S
CONROE         SUNNY     77  52  41 CALM      30.18S
HOUSTON BUSH   SUNNY     77  54  44 VRB3      30.17S
HOUSTON HOBBY  MOSUNNY   79  54  41 W8        30.17S
PERLAND        SUNNY     81  53  37 NW7       30.18S
WHARTON        CLEAR     83  55  37 CALM      30.18R
$$

THE UPPER TEXAS COAST

CITY           SKY/WX    TMP DP  RH WIND       PRES   REMARKS
ORANGE         PTCLDY    76  55  48 S9        30.19S
PORT ARTHUR    SUNNY     80  56  43 W7        30.17F
GALVESTON      SUNNY     70  61  73 S17       30.19S
ANGLETON       SUNNY     78  58  49 SW9       30.18R
BAY CITY       CLEAR     76  59  55 SW10      30.19R
$$

TEXAS COASTAL BEND, RIO GRANDE PLAINS DEEP SOUTH TEXAS

CITY           SKY/WX    TMP DP  RH WIND       PRES   REMARKS
VICTORIA       SUNNY     81  56  42 VRB3      30.16S
BEEVILLE       FAIR      83  53  34 NE3       30.15F
ROCKPORT       SUNNY     74  60  61 S8        30.17S
PORT ARANSAS   CLEAR     68  61  78 S10       30.17S
PORT LAVACA    CLEAR     75  60  58 S13G20    30.18S
CORPUS CHRISTI MOSUNNY   82  59  45 SE17      30.15S
KINGSVILLE NAS SUNNY     83  61  47 SE14G21   30.13F
COTULLA        SUNNY     86  36  16 E7        30.13F
LAREDO         SUNNY     87  37  17 E6        30.12F
BROWNSVILLE    SUNNY     77  58  51 SE17      30.16F
PORT ISABEL    SUNNY     78  58  49 S17       30.15S
HEBBRONVILLE   NOT AVBL
MCALLEN        SUNNY     87  49  26 E10       30.12F
WESLACO        SUNNY     82  49  31 SE9G17    30.13S
FALFURRIAS     CLEAR     85  43  22 NE6       30.12F
EDINBURG       CLEAR     86  44  22 SE7       30.13S
$$




USA.gov is the U.S. government's official web portal to all federal, state and local government web resources and services.